ECHO 1 DEB (METAL OBJ), 51

Orbit data source: Space-Track

ECHO 1 DEB (METAL OBJ), 51 is space debris in LEO originally from a launch on Fri, 12 Aug 1960 UTC launched from the Air Force Eastern Test Range (AFETR). Debris objects in space refer to the collection of defunct objects orbiting the Earth. Examples of debris include non-operational satellites, rocket bodies, and fragments generated from explosions, collisions, or faulty payload assembly.

Loading next visibility...
ECHO 1 DEB (METAL OBJ) details
Identifier
51, 1960-009C
Orbit
LEO
Last TLE update6 hours ago
Origin
Flag of USNASA LaRC (US)
ManufacturerKaiser-Fleetwings
MissionSpacecraft
Bus & MotorECHO CANISTER, Unknown motor
Mass5 kg wet, 5 kg dry
Launch date (UTC)
1960-08-12 (64 years ago)
Launch vehicleUnknown
Launch site
Air Force Eastern Test Range (AFETR)
Object type
Payload
Rocket body
Debris
Shape & HBRUnknown
Radar Cross Section0.600 m², Medium (>0.1 m² and < 1m²)

Expand to show TLE details & history

TLE from 6 hours ago
0 ECHO 1 DEB (METAL OBJ)
1 00051U 60009C   25018.51753555 -.00000090  00000-0 -43825-4 0  9990
2 00051  47.2093 201.9039 0110016 106.1473 255.1457 12.18354241868426
Epoch: 2025-01-18T12:25Z
Definitive object data (Epoch: 2025-01-18T12:25:15.071Z)
Latitude0.00002°
Longitude-102.57456°
Altitude1,623.327 km
Speed7.05 km/s
True Right ascension13h 27m 36s
True Declination0° 00' 00"
Sunlit
Object was in daylight at TLE epoch
Visualization TLE readout
Latitude26.49675°
Longitude-76.02467°
Altitude1,568.831 km
Speed7.101 km/s
Apparent Right ascension12h 26m 41s
Apparent Declination-4° 44' 33"
Sunlit
Object is in daylight
Visualization observer readout
Local Sidereal Time19:24:59
Azimuth275.771° WNW
Elevation-14.203°
Doppler factor1
Orbital elements
Apogee altitude1,688.565 km
Perigee altitude1,513.003 km
Semi-major axis7,978.921 km
Eccentricity0.0110016
Inclination47.2093°
RAAN201.9039°
Arg. of periapsis106.1473°
True anomaly253.93151°
Mean anomaly255.1457°
Eccentric anomaly254.53817°
Mean motion3.04528 °/min
BSTAR-0.000043825
Orbital period118.22 mins
Loading maneuver chart data...
Loading historical data...
Loading historical data...
Loading historical data...
Loading historical data...
Loading historical data...
Loading historical data...
Loading historical data...

ECHO 1 DEB (METAL OBJ) Visibility forecast

Observer location: undefined°, undefined

Span
Click to sort rows by Start time (UTC) header in descending order
Start Az.
Max El. time (UTC)
Max El. Az.
Max El.
End time (UTC)
End Az.
17 mins2025-01-18 18:41:47.729Z288.032° WNW2025-01-18 18:49:47.729Z359.084° N39.484°2025-01-18 18:58:47.729Z80.726° E
17 mins2025-01-18 20:47:47.729Z298.461° NW2025-01-18 20:55:47.729Z50.826° ENE44.859°2025-01-18 21:04:47.729Z116.954° SE
14 mins2025-01-18 22:53:47.729Z281.674° WNW2025-01-18 22:59:47.729Z228.09° WSW30.908°2025-01-18 23:07:47.729Z165.141° S
16 mins2025-01-19 14:08:47.729Z205.253° SW2025-01-19 14:16:47.729Z129.44° SE37.115°2025-01-19 14:24:47.729Z67.372° ENE
17 mins2025-01-19 16:12:47.729Z253.958° W2025-01-19 16:20:47.729Z326.079° NNW43.695°2025-01-19 16:29:47.729Z62.625° ENE
12 mins2025-01-19 18:19:47.729Z289.529° WNW2025-01-19 18:26:47.729Z359.419° N39.421°2025-01-19 18:31:47.729Z66.65° ENE
|